Location: Saint Louis
(38.6272°N, 90.1978°W)
Time: 00:43:14
(UTC-05:00)

ISS - Pass Details

Date: 17 March 2013
Orbit: 401 x 404 km, 51.6° (Epoch: 26 July)

Event Time Altitude Azimuth Distance (km) Brightness Sun altitude
Exits shadow 04:42:05 21° 76° (ENE) 1,057 -0.5 -28.7°
Drops below altitude 10° 04:43:27 10° 65° (ENE) 1,550 0.6 -28.5°
Enters shadow 05:39:33 -69° 234° (SW) 12,313 4.1 -18.1°
